Weather History for KHPN - June, 2013

Change the Weather History Date:

Thursday, June 6, 2013

  Actual Average Record
Temperature  
Mean Temperature 60 °F -  
Max Temperature 69 °F 71 °F 84 °F (1984)
Min Temperature 52 °F 53 °F 46 °F (1990)
Degree Days  
Heating Degree Days 5    
Growing Degree Days 10 (Base 50)    
Moisture  
Dew Point 53 °F    
Average Humidity 79    
Maximum Humidity 96    
Minimum Humidity 47    
Precipitation  
Precipitation 0.13 in - - ()
Sea Level Pressure  
Sea Level Pressure 30.11 in    
Wind  
Wind Speed 4 mph (ESE)    
Max Wind Speed 14 mph    
Max Gust Speed 18 mph    
Visibility 8 miles    
Events Rain    
Averages and records for this station are not official NWS values.
T = Trace of Precipitation, MM = Missing Value Source: NWS Daily Summary

Daily Weather History Graph

Daily Weather History Graph

Search for Another Location

Airport or City:

Trip Planner

Search our weather history database for the weather conditions in past years. The results will help you decide how hot, cold, wet, or windy it might be!

Date:

Astronomy

Jun. 06, 2013 Rise Set
Actual Time 5:22 AM EDT 8:24 PM EDT
Civil Twilight 4:49 AM EDT 8:57 PM EDT
Nautical Twilight 4:07 AM EDT 9:40 PM EDT
Astronomical Twilight 3:17 AM EDT 10:29 PM EDT
Moon 4:03 AM EDT (6/6) 6:43 PM EDT (6/6)
Length of Visible Light 16h 08m
Length of Day
15h 01m
Waning Crescent, 4% of the Moon is Illuminated
Jun 6
Waning Crescent
Jun 8
New
Jun 16
First Quarter
Jun 23
Full
Jun 30
Last Quarter

Hourly Weather History & Observations

Time (EDT) Temp. Dew Point Humidity Pressure Visibility Wind Dir Wind Speed Gust Speed Precip Events Conditions
12:56 AM 53.1 °F 50.0 °F 89% 30.14 in 10.0 mi Calm Calm - N/A   Clear
1:56 AM 54.0 °F 50.0 °F 86% 30.13 in 10.0 mi Calm Calm - N/A   Clear
2:56 AM 52.0 °F 48.9 °F 89% 30.14 in 10.0 mi NW 3.5 mph - N/A   Clear
3:44 AM 53.6 °F 50.0 °F 88% 30.14 in 10.0 mi Calm Calm - N/A   Scattered Clouds
3:53 AM 53.6 °F 50.0 °F 88% 30.14 in 10.0 mi Calm Calm - N/A   Mostly Cloudy
3:56 AM 54.0 °F 50.0 °F 86% 30.13 in 10.0 mi Calm Calm - N/A   Mostly Cloudy
4:39 AM 55.4 °F 53.6 °F 94% 30.15 in 1.5 mi ENE 3.5 mph - N/A   Overcast
4:56 AM 55.0 °F 53.1 °F 93% 30.14 in 1.5 mi East 4.6 mph - N/A   Mostly Cloudy
4:59 AM 55.4 °F 53.6 °F 94% 30.14 in 2.0 mi East 4.6 mph - N/A   Mostly Cloudy
5:11 AM 55.4 °F 53.6 °F 94% 30.14 in 6.0 mi Calm Calm - N/A   Mostly Cloudy
5:56 AM 55.0 °F 54.0 °F 96% 30.12 in 4.0 mi East 4.6 mph - N/A   Overcast
6:56 AM 57.0 °F 54.0 °F 89% 30.14 in 5.0 mi Variable 3.5 mph - N/A   Overcast
7:33 AM 59.0 °F 55.4 °F 88% 30.15 in 6.0 mi East 3.5 mph - N/A   Mostly Cloudy
7:56 AM 60.1 °F 55.0 °F 83% 30.14 in 9.0 mi ESE 6.9 mph - N/A   Mostly Cloudy
8:56 AM 63.0 °F 55.0 °F 75% 30.14 in 10.0 mi ESE 5.8 mph - N/A   Scattered Clouds
9:56 AM 64.9 °F 57.0 °F 75% 30.13 in 10.0 mi ESE 6.9 mph - N/A   Scattered Clouds
10:56 AM 68.0 °F 55.9 °F 65% 30.12 in 10.0 mi SSE 11.5 mph - N/A   Scattered Clouds
11:56 AM 68.0 °F 53.1 °F 59% 30.12 in 10.0 mi SE 11.5 mph - N/A   Clear
12:56 PM 66.9 °F 54.0 °F 63% 30.10 in 10.0 mi SE 13.8 mph - N/A   Mostly Cloudy
1:56 PM 68.0 °F 50.0 °F 52% 30.10 in 10.0 mi SSE 12.7 mph 18.4 mph N/A   Mostly Cloudy
2:56 PM 66.9 °F 46.0 °F 47% 30.09 in 10.0 mi SE 12.7 mph - N/A   Mostly Cloudy
3:56 PM 66.0 °F 46.9 °F 50% 30.08 in 10.0 mi SE 10.4 mph - N/A   Mostly Cloudy
4:56 PM 64.9 °F 46.9 °F 52% 30.07 in 10.0 mi SE 8.1 mph - N/A   Mostly Cloudy
5:56 PM 64.0 °F 50.0 °F 60% 30.07 in 10.0 mi SE 8.1 mph - 0.00 in Rain Light Rain
6:56 PM 61.0 °F 55.0 °F 81% 30.06 in 9.0 mi ESE 4.6 mph - 0.02 in Rain Light Rain
7:56 PM 61.0 °F 57.0 °F 87% 30.05 in 10.0 mi ESE 6.9 mph - 0.01 in   Overcast
8:56 PM 60.1 °F 57.0 °F 90% 30.05 in 10.0 mi SE 5.8 mph - 0.00 in Rain Light Rain
9:56 PM 60.1 °F 55.9 °F 86% 30.04 in 10.0 mi ESE 6.9 mph - 0.01 in Rain Light Rain
10:56 PM 59.0 °F 55.9 °F 90% 30.05 in 10.0 mi SE 4.6 mph - 0.02 in Rain Light Rain
11:56 PM 59.0 °F 57.0 °F 93% 30.03 in 6.0 mi East 4.6 mph - 0.07 in Rain Light Rain